period_start,C,m1,H,J0,J1,J2,J3,J4,J5,JA,JB,JC,JD,JJ,JK,JN,#
2016-12-24 00:02:30,0.16,5.14,0.00,18.53,23.20,27.10,14.96,47.61,1030.29,2041.00,1974.18,2036.97,2314.69,600.06,613.38,19.23,0000 0000 0000 0000 000000
2016-12-24 00:07:31,0.18,5.15,0.00,18.52,23.20,27.13,15.02,47.66,1030.29,2041.00,1972.64,2035.66,2313.10,599.88,613.25,19.28,0000 0000 0000 0000 000000
2016-12-24 00:12:32,0.18,5.16,0.00,18.53,23.20,27.08,15.02,47.71,1030.29,2041.00,1970.88,2034.28,2311.54,600.19,613.46,19.33,0000 0000 0000 0000 000000
2016-12-24 00:17:34,0.18,5.17,0.00,18.52,23.20,27.04,15.05,47.66,1030.29,2041.00,1969.16,2032.79,2309.94,600.18,613.56,19.38,0000 0000 0000 0000 000000
2016-12-24 00:22:35,0.18,5.18,0.00,18.52,23.20,27.06,14.98,47.68,1030.29,2041.00,1967.43,2031.43,2308.41,599.90,613.23,19.43,0000 0000 0000 0000 000000
2016-12-24 00:27:36,0.18,5.19,0.00,18.54,23.20,27.09,14.90,47.60,1030.29,2041.00,1965.70,2029.94,2306.78,599.88,613.15,19.48,0000 0000 0000 0000 000000
2016-12-24 00:32:37,0.17,5.20,0.00,18.55,23.20,27.10,14.99,47.93,1030.29,2041.00,1964.01,2028.63,2305.32,599.87,613.25,19.53,0000 0000 0000 0000 000000
2016-12-24 00:37:38,0.17,5.21,0.00,18.57,23.19,27.11,14.98,47.88,1030.30,2041.00,1962.39,2027.25,2303.74,599.90,613.13,19.58,0000 0000 0000 0000 000000
2016-12-24 00:42:39,0.18,5.22,0.00,18.54,23.19,27.09,15.00,47.88,1030.33,2041.00,1960.68,2025.78,2302.33,600.07,613.37,19.63,0000 0000 0000 0000 000000
2016-12-24 00:47:40,0.16,5.22,0.00,18.53,23.19,27.07,14.97,47.96,1030.31,2041.00,1959.07,2024.49,2300.80,599.85,613.17,19.68,0000 0000 0000 0000 000000
2016-12-24 00:52:41,0.15,5.23,0.00,18.53,23.19,27.09,15.05,47.85,1030.30,2041.00,1957.69,2023.27,2299.43,600.16,613.41,19.73,0000 0000 0000 0000 000000
2016-12-24 00:57:42,0.16,5.24,0.00,18.54,23.19,27.12,14.94,47.68,1030.30,2041.00,1956.17,2021.94,2297.89,599.34,612.61,19.78,0000 0000 0000 0000 000000
2016-12-24 01:02:43,0.18,5.25,0.00,18.55,23.20,27.09,14.95,47.72,1030.30,2041.00,1954.63,2020.67,2296.53,599.80,613.05,19.83,0000 0000 0000 0000 000000
2016-12-24 01:07:44,0.15,5.26,0.00,18.55,23.20,27.14,15.03,47.78,1030.31,2041.00,1953.13,2019.47,2295.08,600.05,613.32,19.88,0000 0000 0000 0000 000000
2016-12-24 01:12:45,0.16,5.27,0.00,18.58,23.22,27.11,14.98,47.87,1030.31,2041.00,1951.65,2018.18,2293.61,600.10,613.33,19.93,0000 0000 0000 0000 000000
2016-12-24 01:17:46,0.15,5.27,0.00,18.54,23.22,27.13,15.02,47.84,1030.30,2041.00,1950.02,2016.91,2292.28,600.12,613.46,19.98,0000 0000 0000 0000 000000
2016-12-24 01:22:48,0.17,5.28,0.00,18.54,23.22,27.10,15.02,47.88,1030.29,2041.00,1948.55,2015.71,2290.81,599.95,613.27,20.03,0000 0000 0000 0000 000000
2016-12-24 01:27:49,0.15,5.29,0.00,18.58,23.22,27.09,15.01,47.77,1030.30,2041.00,1947.04,2014.39,2289.41,599.85,613.05,20.08,0000 0000 0000 0000 000000
2016-12-24 01:32:50,0.15,5.30,0.00,18.58,23.24,27.12,15.08,47.76,1030.31,2041.00,1945.57,2013.14,2287.99,600.34,613.59,20.13,0000 0000 0000 0000 000000
2016-12-24 01:37:51,0.16,5.31,0.00,18.58,23.24,27.15,15.05,47.75,1030.33,2040.99,1944.08,2011.86,2286.61,600.14,613.36,20.18,0000 0000 0000 0000 000000
2016-12-24 01:42:52,0.16,5.31,0.00,18.56,23.24,27.14,15.02,47.77,1030.50,2040.99,1942.64,2010.67,2285.27,600.16,613.51,20.23,0000 0000 0000 0000 000000
2016-12-24 01:47:53,0.15,5.32,0.00,18.55,23.25,27.11,14.98,47.75,1030.58,2040.99,1941.21,2009.45,2283.88,599.96,613.40,20.28,0000 0000 0000 0000 000000
2016-12-24 01:52:54,0.16,5.33,0.00,18.57,23.26,27.16,15.09,47.82,1030.51,2040.98,1939.65,2008.26,2282.51,600.16,613.51,20.33,0000 0000 0000 0000 000000
2016-12-24 01:57:55,0.15,5.34,0.00,18.55,23.26,27.20,14.98,47.78,1030.57,2040.97,1938.19,2006.97,2281.08,600.04,613.49,20.38,0000 0000 0000 0000 000000
2016-12-24 02:02:56,0.17,5.35,0.00,18.56,23.27,27.17,15.04,47.77,1030.72,2040.98,1936.72,2005.75,2279.70,599.94,613.51,20.43,0000 0000 0000 0000 000000
2016-12-24 02:07:57,0.16,5.36,0.00,18.55,23.27,27.21,15.08,47.89,1030.64,2040.99,1935.17,2004.53,2278.39,600.01,613.56,20.48,0000 0000 0000 0000 000000
2016-12-24 02:12:59,0.16,5.36,0.00,18.57,23.27,27.15,15.15,47.98,1030.58,2040.99,1933.69,2003.36,2276.96,600.09,613.48,20.53,0000 0000 0000 0000 000000
2016-12-24 02:18:00,0.15,5.37,0.00,18.61,23.29,27.21,15.08,47.92,1030.60,2040.98,1932.27,2002.10,2275.60,600.24,613.48,20.58,0000 0000 0000 0000 000000
2016-12-24 02:23:01,0.16,5.38,0.00,18.62,23.29,27.19,15.00,48.03,1030.70,2040.98,1930.69,2000.88,2274.29,599.97,613.18,20.63,0000 0000 0000 0000 000000
2016-12-24 02:28:02,0.15,5.39,0.00,18.60,23.29,27.17,14.96,47.91,1030.69,2040.98,1929.34,1999.72,2272.90,600.19,613.59,20.68,0000 0000 0000 0000 000000
2016-12-24 02:33:03,0.15,5.39,0.00,18.61,23.30,27.18,15.12,48.02,1030.67,2040.97,1927.86,1998.57,2271.71,600.24,613.70,20.73,0000 0000 0000 0000 000000
2016-12-24 02:38:04,0.15,5.40,0.00,18.64,23.30,27.25,15.03,47.90,1030.59,2040.99,1926.46,1997.35,2270.31,600.09,613.35,20.78,0000 0000 0000 0000 000000
2016-12-24 02:43:05,0.15,5.41,0.00,18.64,23.31,27.23,14.96,47.77,1030.66,2040.98,1924.94,1996.17,2268.88,600.04,613.28,20.83,0000 0000 0000 0000 000000
2016-12-24 02:48:06,0.16,5.42,0.00,18.65,23.32,27.21,15.03,47.92,1030.60,2040.95,1923.48,1994.89,2267.57,599.80,613.11,20.88,0000 0000 0000 0000 000000
2016-12-24 02:53:08,0.16,5.43,0.00,18.65,23.32,27.21,15.02,47.98,1030.62,2040.94,1921.97,1993.67,2266.17,600.07,613.29,20.93,0000 0000 0000 0000 000000
2016-12-24 02:58:08,0.16,5.43,0.00,18.63,23.32,27.23,14.90,47.96,1030.59,2040.94,1920.56,1992.53,2264.80,599.62,612.89,20.98,0000 0000 0000 0000 000000
2016-12-24 03:03:10,0.13,5.44,0.00,18.64,23.32,27.21,14.92,47.98,1030.75,2040.89,1919.21,1991.42,2263.48,599.96,613.30,21.03,0000 0000 0000 0000 000000
2016-12-24 03:08:11,0.16,5.45,0.00,18.64,23.32,27.22,14.94,48.08,1030.77,2040.81,1917.63,1990.13,2262.05,599.92,613.38,21.08,0000 0000 0000 0000 000000
2016-12-24 03:13:12,0.14,5.46,0.00,18.62,23.34,27.19,15.07,47.96,1030.78,2040.82,1916.23,1988.95,2260.74,600.05,613.36,21.13,0000 0000 0000 0000 000000
2016-12-24 03:18:13,0.16,5.47,0.00,18.59,23.34,27.19,14.99,48.02,1030.78,2040.87,1914.84,1987.83,2259.50,599.90,613.51,21.18,0000 0000 0000 0000 000000
2016-12-24 03:23:14,0.15,5.47,0.00,18.61,23.34,27.26,15.10,47.99,1030.78,2040.95,1913.62,1986.73,2258.27,600.18,613.61,21.23,0000 0000 0000 0000 000000
2016-12-24 03:28:15,0.13,5.48,0.00,18.65,23.34,27.26,15.07,47.86,1030.77,2040.90,1912.25,1985.60,2256.93,600.00,613.35,21.28,0000 0000 0000 0000 000000
2016-12-24 03:33:16,0.17,5.49,0.00,18.68,23.34,27.29,14.99,47.97,1030.78,2040.92,1910.79,1984.50,2255.65,600.10,613.39,21.33,0000 0000 0000 0000 000000
2016-12-24 03:38:17,0.11,5.50,0.00,18.67,23.35,27.27,15.01,47.95,1030.77,2040.79,1909.45,1983.42,2254.34,600.34,613.67,21.38,0000 0000 0000 0000 000000
2016-12-24 03:43:19,0.14,5.50,0.00,18.69,23.37,27.26,15.00,47.88,1030.75,2040.70,1908.07,1982.36,2253.03,599.85,613.06,21.43,0000 0000 0000 0000 000000
2016-12-24 03:48:20,0.13,5.51,0.00,18.73,23.37,27.28,14.99,48.03,1030.78,2040.53,1906.61,1981.17,2251.69,599.92,613.11,21.48,0000 0000 0000 0000 000000
2016-12-24 03:53:21,0.18,5.52,0.00,18.75,23.37,27.31,15.01,48.02,1030.78,2040.76,1905.22,1980.04,2250.47,600.14,613.37,21.53,0000 0000 0000 0000 000000
2016-12-24 03:58:22,0.10,5.53,0.00,18.75,23.38,27.32,15.04,47.79,1030.78,2040.42,1903.86,1978.82,2249.08,600.42,613.59,21.58,0000 0000 0000 0000 000000
2016-12-24 04:03:23,0.15,5.53,0.00,18.78,23.40,27.33,15.00,47.86,1030.78,2040.08,1902.44,1977.59,2247.63,599.84,612.95,21.63,0000 0000 0000 0000 000000
2016-12-24 04:08:24,0.14,5.54,0.00,18.75,23.41,27.30,15.05,47.92,1030.78,2040.04,1901.01,1976.37,2246.18,600.12,613.26,21.68,0000 0000 0000 0000 000000
2016-12-24 04:13:25,0.16,5.55,0.00,18.75,23.42,27.38,15.01,47.83,1030.78,2040.02,1899.59,1975.23,2244.78,599.91,613.09,21.73,0000 0000 0000 0000 000000
2016-12-24 04:18:27,0.15,5.56,0.00,18.78,23.42,27.40,14.97,47.86,1030.78,2040.01,1898.07,1973.94,2243.44,600.13,613.18,21.78,0000 0000 0000 0000 000000
2016-12-24 04:23:28,0.20,5.56,0.00,18.83,23.44,27.37,14.98,47.80,1030.78,2040.00,1896.52,1972.64,2241.90,599.97,612.90,21.83,0000 0000 0000 0000 000000
2016-12-24 04:28:29,0.17,5.57,0.00,18.84,23.45,27.34,14.97,47.90,1030.78,2040.00,1894.89,1971.41,2240.49,599.96,612.90,21.88,0000 0000 0000 0000 000000
2016-12-24 04:33:30,0.15,5.58,0.00,18.83,23.45,27.38,15.08,47.86,1030.78,2040.00,1893.37,1970.09,2239.13,600.12,612.98,21.93,0000 0000 0000 0000 000000
2016-12-24 04:38:31,0.15,5.59,0.00,18.85,23.45,27.40,14.94,47.75,1030.78,2040.00,1892.12,1968.88,2237.75,599.94,612.86,21.98,0000 0000 0000 0000 000000
2016-12-24 04:43:32,0.17,5.60,0.00,18.86,23.45,27.38,14.97,47.74,1030.78,2040.00,1890.69,1967.72,2236.31,599.81,612.63,22.03,0000 0000 0000 0000 000000
2016-12-24 04:48:33,0.17,5.61,0.00,18.82,23.45,27.39,15.05,47.72,1030.78,2039.99,1889.02,1966.54,2234.85,600.29,613.18,22.08,0000 0000 0000 0000 000000
2016-12-24 04:53:34,0.17,5.62,0.00,18.81,23.45,27.38,14.96,47.65,1030.79,2039.98,1887.37,1965.23,2233.57,599.85,612.86,22.13,0000 0000 0000 0000 000000
2016-12-24 04:58:35,0.14,5.62,0.00,18.82,23.46,27.39,15.03,47.75,1030.88,2039.99,1885.91,1964.05,2232.18,600.03,613.10,22.18,0000 0000 0000 0000 000000
2016-12-24 05:03:37,0.17,5.63,0.00,18.83,23.46,27.36,15.04,47.74,1031.09,2039.99,1884.61,1962.91,2230.82,600.26,613.44,22.23,0000 0000 0000 0000 000000
2016-12-24 05:08:38,0.19,5.64,0.00,18.82,23.46,27.41,14.97,47.73,1031.21,2039.98,1882.96,1961.64,2229.43,599.97,613.18,22.28,0000 0000 0000 0000 000000
2016-12-24 05:13:39,0.16,5.65,0.00,18.83,23.46,27.39,15.07,47.72,1031.20,2039.99,1881.42,1960.46,2228.00,600.30,613.50,22.33,0000 0000 0000 0000 000000
2016-12-24 05:18:40,0.17,5.66,0.00,18.82,23.46,27.36,14.91,47.67,1031.26,2039.98,1879.90,1959.23,2226.58,599.71,612.98,22.38,0000 0000 0000 0000 000000
2016-12-24 05:23:42,0.17,5.67,0.00,18.83,23.46,27.35,14.99,47.75,1031.26,2039.99,1878.24,1957.87,2225.24,600.35,613.60,22.44,0000 0000 0000 0000 000000
2016-12-24 05:28:43,0.17,5.67,0.00,18.87,23.46,27.36,14.95,47.67,1031.26,2039.98,1876.57,1956.71,2223.83,600.00,613.34,22.49,0000 0000 0000 0000 000000
2016-12-24 05:33:44,0.15,5.68,0.00,18.86,23.46,27.40,14.97,47.52,1031.27,2039.98,1875.48,1955.58,2222.44,600.26,613.30,22.54,0000 0000 0000 0000 000000
2016-12-24 05:38:45,0.14,5.69,0.00,18.88,23.47,27.37,15.08,47.60,1031.27,2039.96,1874.00,1954.42,2221.12,600.17,613.37,22.59,0000 0000 0000 0000 000000
2016-12-24 05:43:46,0.17,5.70,0.00,18.88,23.47,27.36,15.01,47.53,1031.27,2039.97,1872.50,1953.30,2219.79,600.10,613.26,22.64,0000 0000 0000 0000 000000
2016-12-24 05:48:48,0.14,5.71,0.00,18.87,23.47,27.39,15.00,47.50,1031.28,2039.98,1871.21,1952.17,2218.52,600.07,613.28,22.69,0000 0000 0000 0000 000000
2016-12-24 05:53:49,0.16,5.72,0.00,18.86,23.45,27.36,15.05,47.58,1031.30,2039.96,1869.73,1950.98,2217.18,600.23,613.46,22.74,0000 0000 0000 0000 000000
2016-12-24 05:58:50,0.15,5.72,0.00,18.86,23.45,27.34,15.00,47.63,1031.32,2039.96,1868.21,1949.84,2215.93,599.96,613.19,22.79,0000 0000 0000 0000 000000
2016-12-24 06:03:52,0.15,5.73,0.00,18.91,23.45,27.37,14.96,47.52,1031.47,2039.98,1867.01,1948.78,2214.69,600.02,613.28,22.84,0000 0000 0000 0000 000000
2016-12-24 06:08:53,0.16,5.74,0.00,18.90,23.45,27.35,14.97,47.50,1031.63,2039.96,1865.57,1947.69,2213.39,599.55,612.90,22.89,0000 0000 0000 0000 000000
2016-12-24 06:13:54,0.15,5.75,0.00,18.85,23.45,27.37,15.03,47.52,1031.62,2039.97,1864.23,1946.58,2212.16,600.20,613.68,22.94,0000 0000 0000 0000 000000
2016-12-24 06:18:55,0.17,5.75,0.00,18.87,23.45,27.38,15.03,47.51,1031.70,2039.97,1862.60,1945.46,2210.90,599.99,613.36,22.99,0000 0000 0000 0000 000000
2016-12-24 06:23:57,0.16,5.76,0.00,18.90,23.45,27.32,15.07,47.48,1031.73,2039.98,1861.04,1944.30,2209.63,600.11,613.46,23.04,0000 0000 0000 0000 000000
2016-12-24 06:28:58,0.15,5.77,0.00,18.88,23.45,27.38,14.96,47.55,1031.75,2039.97,1859.60,1943.18,2208.37,600.08,613.57,23.09,0000 0000 0000 0000 000000
2016-12-24 06:33:59,0.16,5.78,0.00,18.88,23.45,27.37,14.97,47.49,1031.72,2039.97,1858.09,1941.91,2206.95,600.00,613.43,23.14,0000 0000 0000 0000 000000
2016-12-24 06:39:01,0.15,5.79,0.00,18.87,23.46,27.38,15.01,47.56,1031.73,2039.97,1856.73,1940.85,2205.74,600.14,613.47,23.19,0000 0000 0000 0000 000000
2016-12-24 06:44:02,0.15,5.80,0.00,18.88,23.47,27.38,14.94,47.48,1031.72,2039.98,1855.48,1939.80,2204.52,599.59,613.09,23.24,0000 0000 0000 0000 000000
2016-12-24 06:49:03,0.15,5.80,0.00,18.90,23.47,27.45,15.01,47.58,1031.73,2039.95,1854.12,1938.62,2203.16,600.12,613.53,23.29,0000 0000 0000 0000 000000
2016-12-24 06:54:04,0.16,5.81,0.00,18.90,23.47,27.44,14.94,47.49,1031.62,2039.97,1852.82,1937.53,2201.87,599.62,612.94,23.34,0000 0000 0000 0000 000000
2016-12-24 06:59:05,0.14,5.82,0.00,18.91,23.47,27.41,15.03,47.54,1031.63,2039.94,1851.57,1936.50,2200.68,599.88,613.13,23.39,0000 0000 0000 0000 000000
2016-12-24 07:04:07,0.13,5.83,0.00,18.91,23.48,27.43,15.00,47.53,1031.73,2039.90,1850.16,1935.40,2199.47,600.11,613.54,23.44,0000 0000 0000 0000 000000
2016-12-24 07:09:08,0.14,5.84,0.00,18.89,23.49,27.46,15.04,47.77,1031.74,2039.86,1848.76,1934.31,2198.28,600.16,613.62,23.49,0000 0000 0000 0000 000000
2016-12-24 07:14:09,0.16,5.84,0.00,18.92,23.50,27.46,14.96,47.53,1031.75,2039.88,1847.52,1933.27,2197.03,599.86,613.20,23.54,0000 0000 0000 0000 000000
2016-12-24 07:19:10,0.13,5.85,0.00,18.92,23.50,27.47,15.07,47.51,1031.75,2039.90,1846.33,1932.26,2195.81,600.40,613.72,23.59,0000 0000 0000 0000 000000
2016-12-24 07:24:11,0.12,5.86,0.00,18.89,23.50,27.41,15.04,47.52,1031.75,2039.71,1844.99,1931.24,2194.59,600.13,613.42,23.64,0000 0000 0000 0000 000000
2016-12-24 07:29:13,0.13,5.86,0.00,18.88,23.50,27.45,14.99,47.57,1031.75,2039.52,1843.63,1930.13,2193.44,599.84,613.35,23.69,0000 0000 0000 0000 000000
2016-12-24 07:34:14,0.11,5.87,0.00,18.90,23.51,27.46,15.01,47.52,1031.74,2039.32,1842.35,1929.05,2192.22,600.07,613.58,23.74,0000 0000 0000 0000 000000
2016-12-24 07:39:15,0.18,5.88,0.00,18.90,23.52,27.43,15.01,47.56,1031.72,2039.52,1840.97,1928.05,2191.10,600.20,613.54,23.79,0000 0000 0000 0000 000000
2016-12-24 07:44:16,0.13,5.88,0.00,18.92,23.52,27.39,14.94,47.52,1031.66,2039.43,1839.63,1926.98,2189.85,600.02,613.31,23.84,0000 0000 0000 0000 000000
2016-12-24 07:49:18,0.17,5.89,0.00,18.93,23.52,27.49,15.00,47.54,1031.70,2039.49,1838.33,1925.96,2188.70,599.77,613.03,23.89,0000 0000 0000 0000 000000
2016-12-24 07:54:19,0.08,5.90,0.00,18.92,23.52,27.40,15.02,47.51,1031.73,2039.28,1837.24,1924.94,2187.50,600.00,613.35,23.94,0000 0000 0000 0000 000000
2016-12-24 07:59:20,0.14,5.90,0.00,18.93,23.52,27.45,15.00,47.52,1031.75,2039.23,1836.08,1923.96,2186.29,599.67,613.06,23.99,0000 0000 0000 0000 000000
2016-12-24 08:04:21,0.15,5.91,0.00,18.92,23.53,27.46,15.02,47.48,1031.69,2039.09,1834.67,1922.94,2185.15,600.28,613.65,24.04,0000 0000 0000 0000 000000
2016-12-24 08:09:22,0.13,5.92,0.00,18.92,23.53,27.42,15.06,47.66,1031.66,2039.11,1833.48,1921.90,2183.95,600.10,613.37,24.09,0000 0000 0000 0000 000000
2016-12-24 08:14:23,0.14,5.93,0.00,18.90,23.52,27.45,14.98,47.53,1031.69,2039.04,1832.08,1920.85,2182.78,600.02,613.35,24.14,0000 0000 0000 0000 000000
2016-12-24 08:19:24,0.15,5.93,0.00,18.89,23.52,27.39,14.94,47.46,1031.69,2039.06,1830.79,1919.95,2181.66,599.68,613.06,24.19,0000 0000 0000 0000 000000
2016-12-24 08:24:25,0.15,5.94,0.00,18.90,23.52,27.40,15.01,47.52,1031.73,2039.08,1829.45,1918.88,2180.47,600.20,613.58,24.24,0000 0000 0000 0000 000000
2016-12-24 08:29:26,0.13,5.95,0.00,18.90,23.52,27.38,14.99,47.52,1031.75,2039.10,1828.11,1917.90,2179.35,599.84,613.23,24.29,0000 0000 0000 0000 000000
2016-12-24 08:34:27,0.16,5.96,0.00,18.89,23.52,27.40,15.01,47.57,1031.75,2039.05,1826.82,1916.84,2178.09,600.00,613.37,24.34,0000 0000 0000 0000 000000
2016-12-24 08:39:29,0.15,5.96,0.00,18.85,23.53,27.41,14.97,47.52,1031.75,2039.06,1825.61,1915.80,2176.88,600.02,613.53,24.39,0000 0000 0000 0000 000000
2016-12-24 08:44:30,0.23,5.97,0.00,18.87,23.53,27.38,14.86,47.54,1031.75,2039.02,1823.56,1914.28,2175.14,599.34,612.86,24.44,0000 0000 0000 0000 000000
2016-12-24 08:49:31,0.59,6.00,0.00,18.85,23.53,27.42,15.02,47.52,1031.76,2039.00,1817.67,1910.66,2171.19,599.90,613.39,24.49,0000 0000 0000 0000 000000
2016-12-24 08:54:32,0.45,6.03,0.00,18.84,23.53,27.43,14.97,47.58,1031.77,2039.01,1813.21,1907.78,2168.02,599.45,612.96,24.54,0000 0000 0000 0000 000000
2016-12-24 08:59:33,0.16,6.03,0.00,18.85,23.53,27.39,15.03,47.52,1031.78,2039.01,1811.60,1906.55,2166.77,599.56,613.22,24.59,0000 0000 0000 0000 000000
2016-12-24 09:04:34,0.15,6.04,0.00,18.81,23.53,27.42,14.98,47.57,1031.78,2039.04,1810.33,1905.56,2165.63,599.95,613.47,24.64,0000 0000 0000 0000 000000
2016-12-24 09:09:36,0.16,6.05,0.00,18.86,23.52,27.41,15.01,47.54,1031.83,2039.07,1808.91,1904.54,2164.49,599.98,613.61,24.69,0000 0000 0000 0000 000000
2016-12-24 09:14:37,0.15,6.06,0.00,18.85,23.52,27.43,15.00,47.49,1031.91,2039.05,1807.59,1903.46,2163.18,600.22,613.78,24.74,0000 0000 0000 0000 000000
2016-12-24 09:19:38,0.13,6.07,0.00,18.85,23.52,27.38,14.95,47.54,1032.08,2039.05,1806.48,1902.44,2161.99,599.97,613.53,24.79,0000 0000 0000 0000 000000
2016-12-24 09:24:39,0.14,6.07,0.00,18.82,23.52,27.38,15.06,47.44,1032.14,2039.05,1805.08,1901.49,2160.87,600.35,614.17,24.84,0000 0000 0000 0000 000000
2016-12-24 09:29:41,0.14,6.08,0.00,18.78,23.52,27.36,14.97,47.50,1032.23,2039.02,1803.89,1900.41,2159.72,599.61,613.54,24.89,0000 0000 0000 0000 000000
2016-12-24 09:34:42,0.13,6.09,0.00,18.80,23.52,27.38,15.06,47.54,1032.24,2039.05,1802.93,1899.61,2158.57,600.10,613.99,24.94,0000 0000 0000 0000 000000
2016-12-24 09:39:43,0.13,6.09,0.00,18.79,23.51,27.37,14.98,47.45,1032.24,2039.01,1801.82,1898.65,2157.45,599.91,613.89,24.99,0000 0000 0000 0000 000000
2016-12-24 09:44:45,0.15,6.10,0.00,18.81,23.50,27.39,15.08,47.48,1032.24,2039.00,1800.45,1897.62,2156.35,600.16,614.06,25.04,0000 0000 0000 0000 000000
2016-12-24 09:49:46,0.14,6.11,0.00,18.80,23.50,27.38,15.10,47.47,1032.26,2039.03,1798.97,1896.67,2155.25,600.04,613.96,25.09,0000 0000 0000 0000 000000
2016-12-24 09:54:47,0.16,6.12,0.00,18.80,23.49,27.35,15.05,47.42,1032.26,2039.03,1797.54,1895.63,2154.15,600.04,613.95,25.14,0000 0000 0000 0000 000000
2016-12-24 09:59:49,0.15,6.13,0.00,18.76,23.47,27.34,15.07,47.46,1032.25,2039.13,1796.29,1894.66,2153.01,600.29,614.34,25.19,0000 0000 0000 0000 000000
2016-12-24 10:04:50,0.14,6.13,0.00,18.75,23.47,27.31,14.96,47.49,1032.25,2039.15,1795.01,1893.70,2151.89,599.70,613.75,25.24,0000 0000 0000 0000 000000
2016-12-24 10:09:51,0.16,6.14,0.00,18.73,23.47,27.34,15.02,47.48,1032.24,2039.21,1793.75,1892.73,2150.78,600.20,614.30,25.29,0000 0000 0000 0000 000000
2016-12-24 10:14:52,0.17,6.15,0.00,18.76,23.47,27.32,15.02,47.51,1032.26,2039.35,1792.47,1891.78,2149.65,600.32,614.33,25.34,0000 0000 0000 0000 000000
2016-12-24 10:19:53,0.11,6.15,0.00,18.74,23.46,27.36,15.05,47.40,1032.30,2039.26,1791.55,1890.81,2148.47,599.84,613.88,25.39,0000 0000 0000 0000 000000
2016-12-24 10:24:54,0.13,6.16,0.00,18.74,23.45,27.31,14.96,47.40,1032.33,2039.22,1790.35,1889.83,2147.35,599.89,614.02,25.44,0000 0000 0000 0000 000000
2016-12-24 10:29:56,0.18,6.17,0.00,18.73,23.45,27.28,15.02,47.63,1032.29,2039.36,1788.82,1888.87,2146.28,599.98,614.05,25.49,0000 0000 0000 0000 000000
2016-12-24 10:34:57,0.20,6.18,0.00,18.75,23.45,27.28,14.98,47.58,1032.45,2039.83,1787.50,1887.93,2145.25,599.60,613.70,25.54,0000 0000 0000 0000 000000
2016-12-24 10:39:58,0.14,6.19,0.00,18.75,23.44,27.25,14.97,47.61,1032.60,2039.95,1786.21,1886.97,2144.15,599.37,613.57,25.59,0000 0000 0000 0000 000000
2016-12-24 10:44:59,0.14,6.20,0.00,18.72,23.44,27.28,15.03,47.51,1032.56,2039.95,1785.20,1885.99,2142.95,599.76,614.07,25.65,0000 0000 0000 0000 000000
2016-12-24 10:50:01,0.14,6.20,0.00,18.74,23.44,27.31,15.01,47.52,1032.31,2039.83,1783.91,1884.97,2141.74,600.26,614.18,25.70,0000 0000 0000 0000 000000
2016-12-24 10:55:02,0.17,6.21,0.00,18.75,23.43,27.26,15.01,47.59,1032.32,2039.88,1782.27,1883.97,2140.63,599.99,614.04,25.75,0000 0000 0000 0000 000000
2016-12-24 11:00:03,0.13,6.22,0.00,18.72,23.42,27.25,14.97,47.68,1032.48,2039.96,1781.20,1883.03,2139.52,599.57,613.73,25.80,0000 0000 0000 0000 000000
2016-12-24 11:05:04,0.15,6.23,0.00,18.74,23.42,27.24,15.04,47.68,1032.50,2039.96,1779.90,1882.07,2138.38,600.11,614.32,25.85,0000 0000 0000 0000 000000
2016-12-24 11:10:05,0.14,6.24,0.00,18.76,23.42,27.25,14.98,47.64,1032.60,2039.94,1778.71,1881.08,2137.23,599.91,614.07,25.90,0000 0000 0000 0000 000000
2016-12-24 11:15:07,0.15,6.24,0.00,18.73,23.43,27.33,15.03,47.59,1032.58,2039.95,1777.37,1880.12,2136.12,600.35,614.60,25.95,0000 0000 0000 0000 000000
2016-12-24 11:20:08,0.14,6.25,0.00,18.70,23.43,27.26,15.02,47.53,1032.46,2039.93,1776.26,1879.16,2134.92,599.87,614.11,26.00,0000 0000 0000 0000 000000
2016-12-24 11:25:09,0.16,6.26,0.00,18.69,23.44,27.35,15.08,47.60,1032.54,2039.93,1774.91,1878.14,2133.72,600.13,614.48,26.05,0000 0000 0000 0000 000000
2016-12-24 11:30:10,0.14,6.27,0.00,18.73,23.44,27.29,15.06,47.56,1032.68,2039.91,1773.74,1877.15,2132.58,600.16,614.59,26.10,0000 0000 0000 0000 000000
2016-12-24 11:35:11,0.11,6.27,0.00,18.76,23.45,27.31,15.04,47.67,1032.71,2039.60,1772.31,1876.13,2131.37,599.99,614.14,26.15,0000 0000 0000 0000 000000
2016-12-24 11:40:13,0.13,6.28,0.00,18.75,23.45,27.34,15.01,47.63,1032.72,2039.40,1771.01,1875.09,2130.16,600.17,614.39,26.20,0000 0000 0000 0000 000000
2016-12-24 11:45:13,0.17,6.29,0.00,18.75,23.45,27.35,15.01,47.76,1032.73,2039.49,1769.56,1874.02,2128.97,600.20,614.49,26.25,0000 0000 0000 0000 000000
2016-12-24 11:50:14,0.15,6.30,0.00,18.75,23.45,27.34,15.02,47.74,1032.73,2039.40,1768.22,1873.02,2127.78,600.07,614.31,26.30,0000 0000 0000 0000 000000
2016-12-24 11:55:16,0.14,6.30,0.00,18.72,23.45,27.41,15.14,47.73,1032.73,2039.38,1767.20,1872.11,2126.67,600.15,614.53,26.35,0000 0000 0000 0000 000000
2016-12-24 12:00:17,0.10,6.31,0.00,18.69,23.45,27.40,15.06,47.67,1032.73,2039.24,1766.06,1871.21,2125.58,600.16,614.65,26.40,0000 0000 0000 0000 000000
2016-12-24 12:05:18,0.15,6.31,0.00,18.69,23.44,27.42,15.14,47.63,1032.73,2039.13,1764.77,1870.27,2124.45,600.29,614.72,26.45,0000 0000 0000 0000 000000
2016-12-24 12:10:19,0.16,6.32,0.00,18.73,23.43,27.35,15.04,47.65,1032.73,2039.22,1763.38,1869.37,2123.42,600.04,614.38,26.50,0000 0000 0000 0000 000000
2016-12-24 12:15:20,0.14,6.33,0.00,18.72,23.42,27.25,15.07,47.74,1032.73,2039.17,1762.02,1868.37,2122.33,599.91,614.34,26.55,0000 0000 0000 0000 000000
2016-12-24 12:20:21,0.14,6.34,0.00,18.72,23.42,27.30,14.99,47.52,1032.73,2039.29,1760.97,1867.40,2121.21,599.92,614.33,26.60,0000 0000 0000 0000 000000
2016-12-24 12:25:22,0.15,6.34,0.00,18.68,23.42,27.27,14.97,47.61,1032.73,2039.29,1759.77,1866.52,2120.16,599.75,614.19,26.65,0000 0000 0000 0000 000000
2016-12-24 12:30:24,0.17,6.35,0.00,18.71,23.40,27.26,15.09,47.55,1032.73,2039.45,1758.53,1865.58,2119.07,599.93,614.34,26.70,0000 0000 0000 0000 000000
2016-12-24 12:35:25,0.16,6.36,0.00,18.66,23.40,27.29,15.02,47.58,1032.73,2039.63,1757.19,1864.63,2118.02,599.67,614.15,26.75,0000 0000 0000 0000 000000
2016-12-24 12:40:26,0.16,6.37,0.00,18.68,23.40,27.31,15.07,47.69,1032.74,2039.83,1755.88,1863.69,2116.93,600.13,614.62,26.80,0000 0000 0000 0000 000000
2016-12-24 12:45:27,0.14,6.38,0.00,18.68,23.39,27.25,15.04,47.68,1032.74,2039.71,1754.60,1862.73,2115.80,599.77,614.23,26.85,0000 0000 0000 0000 000000
2016-12-24 12:50:28,0.14,6.38,0.00,18.70,23.38,27.27,15.02,47.70,1032.76,2039.71,1753.36,1861.78,2114.73,600.29,614.64,26.90,0000 0000 0000 0000 000000
2016-12-24 12:55:30,0.16,6.39,0.00,18.70,23.37,27.18,14.98,47.57,1032.76,2039.82,1752.13,1860.80,2113.55,599.85,614.23,26.95,0000 0000 0000 0000 000000